SAS74C ENGM-ENBR

Flight info

Callsign SAS74C
Flight time 0h 45m
Altitude 28000
Route ATLAP DCT AGEKU DCT PESUR
Aircraft A320/M-SDE3FGHIRWY/LB1

Departure

Time 2026-05-07 11:34
Airport Oslo-Gardermoen International Airport (ENGM)

Arrival

Time 2026-05-07 12:19
Airport Bergen Airport, Flesland (ENBR)
Time Latitude Longitude Altitude Speed Heading
2026-05-07 11:12 60.19570 11.09347 691 ft 0 kts 196°
2026-05-07 11:22 60.19575 11.09350 691 ft 2 kts 196°
2026-05-07 11:22 60.19593 11.09360 689 ft 3 kts 196°
2026-05-07 11:23 60.19613 11.09372 689 ft 3 kts 196°
2026-05-07 11:23 60.19632 11.09383 684 ft 3 kts 196°
2026-05-07 11:23 60.19651 11.09394 687 ft 2 kts 196°
2026-05-07 11:23 60.19656 11.09397 685 ft 0 kts 196°
2026-05-07 11:27 60.19653 11.09390 686 ft 2 kts 222°
2026-05-07 11:28 60.19666 11.09352 686 ft 5 kts 320°
2026-05-07 11:28 60.19695 11.09284 687 ft 8 kts 298°
2026-05-07 11:28 60.19716 11.09147 689 ft 12 kts 285°
2026-05-07 11:28 60.19741 11.08967 689 ft 15 kts 286°
2026-05-07 11:29 60.19766 11.08792 689 ft 12 kts 286°
2026-05-07 11:29 60.19829 11.08702 688 ft 14 kts 10°
2026-05-07 11:29 60.19930 11.08758 689 ft 16 kts 15°
2026-05-07 11:29 60.20049 11.08826 691 ft 19 kts 15°
2026-05-07 11:30 60.20182 11.08904 691 ft 21 kts 16°
2026-05-07 11:30 60.20329 11.08989 686 ft 24 kts 16°
2026-05-07 11:30 60.20503 11.09087 685 ft 27 kts 15°
2026-05-07 11:30 60.20678 11.09190 684 ft 26 kts 17°
2026-05-07 11:31 60.20857 11.09293 684 ft 27 kts 15°
2026-05-07 11:31 60.21034 11.09397 682 ft 28 kts 16°
2026-05-07 11:31 60.21214 11.09499 679 ft 27 kts 15°
2026-05-07 11:31 60.21380 11.09595 678 ft 24 kts 18°
2026-05-07 11:32 60.21561 11.09392 669 ft 18 kts 285°
2026-05-07 11:32 60.21587 11.09180 669 ft 10 kts 278°
2026-05-07 11:32 60.21552 11.09132 670 ft 2 kts 193°
2026-05-07 11:33 60.21518 11.09114 670 ft 26 kts 196°
2026-05-07 11:33 60.21102 11.08874 675 ft 95 kts 196°
2026-05-07 11:33 60.20286 11.08406 685 ft 147 kts 195°
2026-05-07 11:33 60.19176 11.07775 833 ft 177 kts 195°
2026-05-07 11:34 60.17966 11.07056 1381 ft 186 kts 198°
2026-05-07 11:34 60.16768 11.05949 1964 ft 198 kts 218°
2026-05-07 11:34 60.15828 11.03708 2290 ft 226 kts 245°
2026-05-07 11:34 60.15393 11.00486 2801 ft 250 kts 259°
2026-05-07 11:35 60.14873 10.97117 3692 ft 256 kts 248°
2026-05-07 11:35 60.14319 10.93710 4642 ft 259 kts 260°
2026-05-07 11:35 60.14242 10.90079 5586 ft 262 kts 271°
2026-05-07 11:35 60.14270 10.86407 6545 ft 264 kts 271°
2026-05-07 11:36 60.14299 10.82701 7441 ft 267 kts 271°
2026-05-07 11:36 60.14327 10.78949 8357 ft 270 kts 271°
2026-05-07 11:36 60.14353 10.75174 9271 ft 271 kts 271°
2026-05-07 11:36 60.14380 10.71369 10164 ft 274 kts 271°
2026-05-07 11:37 60.14407 10.67430 10563 ft 294 kts 271°
2026-05-07 11:37 60.14430 10.63257 10941 ft 310 kts 271°
2026-05-07 11:37 60.14448 10.58897 11650 ft 314 kts 271°
2026-05-07 11:37 60.14467 10.54503 12445 ft 316 kts 271°
2026-05-07 11:38 60.14488 10.50083 13245 ft 317 kts 271°
2026-05-07 11:38 60.14508 10.45641 14021 ft 319 kts 271°
2026-05-07 11:38 60.14526 10.41172 14694 ft 321 kts 271°
2026-05-07 11:38 60.14542 10.36670 15391 ft 324 kts 271°
2026-05-07 11:39 60.14556 10.32141 16069 ft 326 kts 270°
2026-05-07 11:39 60.14568 10.27585 16728 ft 328 kts 270°
2026-05-07 11:39 60.14581 10.22985 17414 ft 330 kts 270°
2026-05-07 11:39 60.14593 10.18359 18093 ft 333 kts 270°
2026-05-07 11:40 60.14600 10.13700 18714 ft 335 kts 270°
2026-05-07 11:40 60.14603 10.09015 19336 ft 336 kts 270°
2026-05-07 11:40 60.14606 10.04319 19987 ft 337 kts 270°
2026-05-07 11:40 60.14608 9.99598 20639 ft 339 kts 270°
2026-05-07 11:41 60.14609 9.94910 21584 ft 328 kts 270°
2026-05-07 11:41 60.14607 9.90535 22928 ft 308 kts 271°
2026-05-07 11:41 60.14604 9.86388 24176 ft 287 kts 271°
2026-05-07 11:41 60.14600 9.82541 25267 ft 267 kts 271°
2026-05-07 11:42 60.14613 9.78873 25973 ft 260 kts 274°
2026-05-07 11:42 60.14722 9.75266 26473 ft 259 kts 276°
2026-05-07 11:42 60.14882 9.71661 26883 ft 260 kts 276°
2026-05-07 11:42 60.15056 9.68039 27292 ft 261 kts 277°
2026-05-07 11:43 60.15231 9.64393 27683 ft 263 kts 277°
2026-05-07 11:43 60.15401 9.60718 28033 ft 267 kts 276°
2026-05-07 11:43 60.15570 9.56916 28086 ft 280 kts 276°
2026-05-07 11:43 60.15741 9.52923 28092 ft 294 kts 276°
2026-05-07 11:44 60.15914 9.48726 28093 ft 309 kts 276°
2026-05-07 11:44 60.16089 9.44319 28086 ft 324 kts 276°
2026-05-07 11:44 60.16269 9.39726 28084 ft 334 kts 276°
2026-05-07 11:45 60.16631 9.30346 28091 ft 338 kts 275°
2026-05-07 11:45 60.16990 9.20919 28092 ft 339 kts 275°
2026-05-07 11:46 60.17342 9.11488 28102 ft 339 kts 275°
2026-05-07 11:46 60.17696 9.02049 28102 ft 340 kts 275°
2026-05-07 11:47 60.18038 8.92602 28098 ft 339 kts 275°
2026-05-07 11:47 60.18372 8.83147 28107 ft 339 kts 275°
2026-05-07 11:48 60.18701 8.73776 28118 ft 339 kts 275°
2026-05-07 11:48 60.19020 8.64327 28129 ft 339 kts 275°
2026-05-07 11:49 60.19332 8.54872 28146 ft 339 kts 275°
2026-05-07 11:49 60.19643 8.45412 28161 ft 339 kts 275°
2026-05-07 11:50 60.19944 8.35949 28171 ft 339 kts 274°
2026-05-07 11:50 60.20238 8.26491 28186 ft 339 kts 274°
2026-05-07 11:51 60.20526 8.17016 28194 ft 339 kts 274°
2026-05-07 11:51 60.20804 8.07551 28202 ft 339 kts 274°
2026-05-07 11:52 60.21079 7.98138 28213 ft 339 kts 274°
2026-05-07 11:52 60.21345 7.88670 28212 ft 339 kts 274°
2026-05-07 11:53 60.21604 7.79228 27785 ft 336 kts 274°
2026-05-07 11:53 60.21730 7.74559 27331 ft 333 kts 274°
2026-05-07 11:53 60.21854 7.69920 26882 ft 331 kts 274°
2026-05-07 11:53 60.21973 7.65316 26445 ft 330 kts 274°
2026-05-07 11:54 60.22090 7.60718 26015 ft 328 kts 273°
2026-05-07 11:54 60.22208 7.56132 25607 ft 327 kts 273°
2026-05-07 11:54 60.22327 7.51585 25209 ft 325 kts 273°
2026-05-07 11:54 60.22445 7.47045 24814 ft 323 kts 273°
2026-05-07 11:55 60.22555 7.42540 24424 ft 321 kts 273°
2026-05-07 11:55 60.22661 7.38061 24057 ft 319 kts 273°
2026-05-07 11:55 60.22764 7.33630 23676 ft 316 kts 273°
2026-05-07 11:55 60.22867 7.29221 23251 ft 313 kts 273°
2026-05-07 11:56 60.22970 7.24867 22827 ft 310 kts 273°
2026-05-07 11:56 60.23070 7.20559 22414 ft 307 kts 272°
2026-05-07 11:56 60.23168 7.16283 21997 ft 305 kts 272°
2026-05-07 11:56 60.23260 7.12098 21594 ft 302 kts 272°
2026-05-07 11:57 60.23351 7.07880 21195 ft 301 kts 272°
2026-05-07 11:57 60.23441 7.03679 20794 ft 300 kts 272°
2026-05-07 11:57 60.23530 6.99500 20404 ft 299 kts 272°
2026-05-07 11:57 60.23618 6.95323 20019 ft 298 kts 272°
2026-05-07 11:58 60.23703 6.91154 19636 ft 298 kts 271°
2026-05-07 11:58 60.23783 6.86991 19252 ft 297 kts 271°
2026-05-07 11:58 60.23863 6.82840 18888 ft 297 kts 271°
2026-05-07 11:58 60.23943 6.78697 18524 ft 296 kts 271°
2026-05-07 11:59 60.24023 6.74561 18105 ft 295 kts 271°
2026-05-07 11:59 60.24099 6.70438 17683 ft 294 kts 271°
2026-05-07 11:59 60.24177 6.66326 17267 ft 294 kts 271°
2026-05-07 11:59 60.24257 6.62217 16855 ft 294 kts 272°
2026-05-07 12:00 60.24572 6.58170 16451 ft 294 kts 284°
2026-05-07 12:00 60.25348 6.54350 16055 ft 295 kts 294°
2026-05-07 12:00 60.26264 6.50641 15662 ft 296 kts 294°
2026-05-07 12:00 60.27177 6.46932 15275 ft 295 kts 294°
2026-05-07 12:01 60.28087 6.43223 14889 ft 296 kts 294°
2026-05-07 12:01 60.28993 6.39515 14501 ft 295 kts 294°
2026-05-07 12:01 60.29900 6.35792 14130 ft 296 kts 294°
2026-05-07 12:01 60.30804 6.32060 13747 ft 295 kts 294°
2026-05-07 12:02 60.31702 6.28347 13330 ft 295 kts 294°
2026-05-07 12:02 60.32597 6.24636 12916 ft 294 kts 294°
2026-05-07 12:02 60.33489 6.20933 12510 ft 293 kts 294°
2026-05-07 12:02 60.34381 6.17228 12109 ft 293 kts 294°
2026-05-07 12:03 60.35271 6.13534 11707 ft 293 kts 294°
2026-05-07 12:03 60.36162 6.09839 11317 ft 292 kts 294°
2026-05-07 12:03 60.37053 6.06152 10933 ft 292 kts 294°
2026-05-07 12:03 60.37941 6.02468 10548 ft 291 kts 294°
2026-05-07 12:04 60.38826 5.98783 10167 ft 291 kts 294°
2026-05-07 12:04 60.39708 5.95089 9771 ft 292 kts 294°
2026-05-07 12:04 60.40590 5.91385 9354 ft 292 kts 294°
2026-05-07 12:04 60.41248 5.88609 9052 ft 292 kts 294°
2026-05-07 12:05 60.42127 5.84900 8691 ft 291 kts 294°
2026-05-07 12:05 60.42991 5.81268 8359 ft 289 kts 294°
2026-05-07 12:05 60.43856 5.77625 8015 ft 287 kts 294°
2026-05-07 12:05 60.44718 5.73977 7671 ft 286 kts 294°
2026-05-07 12:06 60.45569 5.70363 7377 ft 281 kts 294°
2026-05-07 12:06 60.46404 5.66819 7116 ft 276 kts 294°
2026-05-07 12:06 60.47471 5.63640 6866 ft 274 kts 316°
2026-05-07 12:06 60.49084 5.61657 6611 ft 272 kts 342°
2026-05-07 12:07 60.50948 5.61210 6350 ft 270 kts
2026-05-07 12:07 60.52817 5.61238 6087 ft 265 kts 356°
2026-05-07 12:07 60.54594 5.60542 5978 ft 255 kts 340°
2026-05-07 12:07 60.56226 5.59381 5993 ft 243 kts 340°
2026-05-07 12:08 60.57282 5.58637 6001 ft 242 kts 340°
2026-05-07 12:08 60.58841 5.57370 6000 ft 241 kts 330°
2026-05-07 12:08 60.60202 5.55404 5998 ft 240 kts 319°
2026-05-07 12:08 60.61493 5.53239 5997 ft 240 kts 319°
2026-05-07 12:09 60.62779 5.51081 6003 ft 240 kts 317°
2026-05-07 12:09 60.64146 5.47594 5999 ft 238 kts 298°
2026-05-07 12:09 60.64990 5.44680 5936 ft 240 kts 299°
2026-05-07 12:09 60.65564 5.42700 5766 ft 239 kts 299°
2026-05-07 12:10 60.66305 5.39702 5508 ft 235 kts 287°
2026-05-07 12:10 60.66651 5.36467 5247 ft 233 kts 277°
2026-05-07 12:10 60.66795 5.33211 5009 ft 228 kts 262°
2026-05-07 12:10 60.66311 5.30214 4797 ft 221 kts 235°
2026-05-07 12:11 60.65284 5.28068 4677 ft 213 kts 211°
2026-05-07 12:11 60.63922 5.26990 4550 ft 211 kts 186°
2026-05-07 12:11 60.62465 5.26990 4430 ft 211 kts 176°
2026-05-07 12:11 60.61002 5.27128 4283 ft 210 kts 177°
2026-05-07 12:12 60.59545 5.27256 4151 ft 209 kts 177°
2026-05-07 12:12 60.58091 5.27385 4046 ft 208 kts 177°
2026-05-07 12:12 60.56643 5.27520 4012 ft 209 kts 178°
2026-05-07 12:12 60.55186 5.27652 4013 ft 210 kts 178°
2026-05-07 12:13 60.53736 5.27778 3997 ft 209 kts 177°
2026-05-07 12:13 60.52279 5.27721 3997 ft 208 kts 191°
2026-05-07 12:13 60.50958 5.26682 4004 ft 204 kts 212°
2026-05-07 12:13 60.49919 5.24730 4011 ft 205 kts 233°
2026-05-07 12:14 60.49195 5.22233 4013 ft 206 kts 239°
2026-05-07 12:14 60.48454 5.19716 3810 ft 211 kts 231°
2026-05-07 12:14 60.47391 5.17750 3598 ft 199 kts 210°
2026-05-07 12:14 60.46167 5.16732 3428 ft 186 kts 192°
2026-05-07 12:15 60.44912 5.16569 3181 ft 179 kts 175°
2026-05-07 12:15 60.43675 5.16966 2923 ft 179 kts 171°
2026-05-07 12:15 60.42443 5.17386 2705 ft 182 kts 171°
2026-05-07 12:15 60.41241 5.17798 2454 ft 165 kts 171°
2026-05-07 12:16 60.40184 5.18156 2253 ft 146 kts 171°
2026-05-07 12:16 60.39214 5.18484 2034 ft 139 kts 171°
2026-05-07 12:16 60.38274 5.18802 1847 ft 136 kts 171°
2026-05-07 12:16 60.37334 5.19126 1658 ft 140 kts 171°
2026-05-07 12:17 60.36376 5.19446 1509 ft 141 kts 172°
2026-05-07 12:17 60.35419 5.19744 1276 ft 140 kts 172°
2026-05-07 12:17 60.34447 5.20084 1083 ft 138 kts 171°
2026-05-07 12:17 60.33546 5.20416 952 ft 136 kts 170°
2026-05-07 12:18 60.32580 5.20761 702 ft 143 kts 172°
2026-05-07 12:18 60.31623 5.21056 451 ft 132 kts 172°
2026-05-07 12:18 60.30741 5.21353 287 ft 126 kts 172°
2026-05-07 12:18 60.29902 5.21631 153 ft 108 kts 171°
2026-05-07 12:19 60.29329 5.21821 156 ft 64 kts 171°
2026-05-07 12:19 60.28973 5.21934 163 ft 20 kts 172°
2026-05-07 12:19 60.28917 5.22101 164 ft 16 kts 81°
2026-05-07 12:19 60.28924 5.22180 168 ft 3 kts 81°
2026-05-07 12:20 60.28924 5.22233 170 ft 5 kts 99°
2026-05-07 12:20 60.28898 5.22283 171 ft 7 kts 155°
2026-05-07 12:20 60.28830 5.22312 171 ft 12 kts 172°
2026-05-07 12:20 60.28735 5.22342 169 ft 15 kts 171°
2026-05-07 12:21 60.28696 5.22440 171 ft 9 kts 76°
2026-05-07 12:21 60.28714 5.22547 174 ft 8 kts 76°
2026-05-07 12:21 60.28725 5.22673 174 ft 9 kts 80°
2026-05-07 12:21 60.28767 5.22769 175 ft 6 kts 60°
2026-05-07 12:22 60.28775 5.22820 175 ft 4 kts 78°
2026-05-07 12:22 60.28779 5.22867 176 ft 3 kts 80°
2026-05-07 12:22 60.28781 5.22891 176 ft 2 kts 80°
2026-05-07 12:22 60.28781 5.22893 176 ft 0 kts 80°
2026-05-07 12:23 60.28781 5.22892 176 ft 0 kts 80°
2026-05-07 12:48 60.28781 5.22891 176 ft 0 kts 80°